sat.trackr.live / text

‹ back to catalog

STARLINK-33849

NORAD 63654 · 2025-083W

PAYLOAD ACTIVE UNKNOWN

§ Identity

Operator
Country
US
Launch date
2025-04-25
Launch site
AFETR
Launch vehicle
Mass (kg)
RCS (m²)

Purposes: comms

External: N2YO · Heavens-Above · Gunter

§ Orbital elements

Epoch: 2026-09-20T12:48:25.459200Z

Period
94.27 min
Inclination
43.0029°
Eccentricity
0.0001416
Mean motion
15.27596159 rev/d
Perigee alt
482.0 km
Apogee alt
484.0 km
Semi-major
6,861.1 km
B*
6.6902e-4
RAAN
345.0089°
Arg perigee
290.9819°
Mean anomaly
69.0881°
Rev number
7,986

§ Raw data

STARLINK-338491 63654U 25083W   26263.53362800  .00018202  00000+0  66902-3 0  99962 63654  43.0029 345.0089 0001416 290.9819  69.0881 15.27596159 79865

JSON: /api/v1/satellites/63654 · /tle

For live sub-satellite position, see the globe view (requires WebGL).

§ Visibility from observer

Set your observer location to see the next 7 days of passes ≥ 10°. The values pass through the URL so the page stays shareable.

No JS? Fill the form by hand. The geolocation button needs JavaScript.